Location: Unspecified
(0.0000°N, 0.0000°E)
Time: 07:30:53
(UTC+00:00)

Vanguard 2 - Pass Details

Date: 13 December 2017
Orbit: 552 x 2940 km, 32.9° (Epoch: 14 January)

Event Time Altitude Azimuth Distance (km) Brightness Sun altitude
Rises 21:28:53 0° 340° (NNW) 2,805 - -47.7°
Reaches altitude 10° 21:32:00 10° 8° (N) 2,083 - -48.3°
Maximum altitude 21:34:30 14° 41° (NE) 2,010 - -48.8°
Drops below altitude 10° 21:37:26 10° 72° (ENE) 2,541 - -49.4°
Sets 21:42:01 0° 95° (E) 3,968 - -50.3°
